Météo par heure à Abaytikau

Ce jour, 3 Décembre, Jeudi

Heure Température Précipitation Vent Pression Humidité
00:00 -6°C° 0 mm 2 m/s 577 mmHg 88%
01:00 -6°C° 0 mm 2 m/s 577 mmHg 89%
02:00 -6°C° 0 mm 2 m/s 577 mmHg 89%
03:00 -7°C° 0 mm 2 m/s 577 mmHg 88%
04:00 -7°C° 0 mm 2 m/s 576 mmHg 87%
05:00 -7°C° 0 mm 2 m/s 576 mmHg 87%
06:00 -7°C° 0 mm 1 m/s 576 mmHg 86%
07:00 -6°C° 0 mm 1 m/s 577 mmHg 85%
08:00 -4°C° 0 mm 1 m/s 577 mmHg 83%
09:00 -2°C° 0 mm 1 m/s 578 mmHg 82%
10:00 -2°C° 0 mm 1 m/s 578 mmHg 84%
11:00 -1°C° 0 mm 1 m/s 578 mmHg 86%
12:00 0°C° 0 mm 1 m/s 579 mmHg 88%
13:00 0°C° 0 mm 1 m/s 578 mmHg 90%
14:00 -1°C° 0 mm 1 m/s 578 mmHg 92%
15:00 -1°C° 0 mm 1 m/s 578 mmHg 94%
16:00 -2°C° 0 mm 1 m/s 577 mmHg 93%
17:00 -3°C° 0 mm 1 m/s 577 mmHg 91%
18:00 -6°C° 0 mm 1 m/s 577 mmHg 90%
19:00 -7°C° 0 mm 2 m/s 576 mmHg 89%
20:00 -7°C° 0 mm 2 m/s 576 mmHg 88%
21:00 -8°C° 0 mm 2 m/s 576 mmHg 88%
22:00 -8°C° 0 mm 2 m/s 576 mmHg 88%
23:00 -8°C° 0 mm 2 m/s 576 mmHg 89%

Demain, 4 Décembre, Vendredi

Heure Température Précipitation Vent Pression Humidité
00:00 -8°C° 0 mm 2 m/s 576 mmHg 89%
01:00 -8°C° 0 mm 2 m/s 576 mmHg 89%
02:00 -8°C° 0 mm 2 m/s 576 mmHg 88%
03:00 -8°C° 0 mm 2 m/s 576 mmHg 88%
04:00 -8°C° 0 mm 2 m/s 575 mmHg 86%
05:00 -9°C° 0 mm 2 m/s 575 mmHg 85%
06:00 -8°C° 0 mm 1 m/s 575 mmHg 84%
07:00 -7°C° 0 mm 1 m/s 575 mmHg 82%
08:00 -6°C° 0 mm 1 m/s 576 mmHg 80%
09:00 -4°C° 0 mm 1 m/s 576 mmHg 79%
10:00 -3°C° 0 mm 1 m/s 577 mmHg 80%
11:00 -2°C° 0 mm 1 m/s 577 mmHg 81%
12:00 -1°C° 0 mm 1 m/s 577 mmHg 82%
13:00 -2°C° 0 mm 1 m/s 577 mmHg 86%
14:00 -2°C° 0 mm 1 m/s 576 mmHg 89%
15:00 -3°C° 0 mm 1 m/s 576 mmHg 92%
16:00 -4°C° 0 mm 1 m/s 575 mmHg 89%
17:00 -7°C° 0 mm 1 m/s 575 mmHg 87%
18:00 -8°C° 0 mm 1 m/s 574 mmHg 84%
19:00 -8°C° 0 mm 1 m/s 574 mmHg 82%
20:00 -10°C° 0 mm 2 m/s 574 mmHg 80%
21:00 -10°C° 0 mm 2 m/s 574 mmHg 78%
22:00 -10°C° 0 mm 2 m/s 573 mmHg 78%
23:00 -10°C° 0 mm 2 m/s 573 mmHg 79%

Après-demain, 5 Décembre, Samedi

Heure Température Précipitation Vent Pression Humidité
00:00 -10°C° 0 mm 2 m/s 573 mmHg 80%
01:00 -10°C° 0 mm 2 m/s 573 mmHg 81%
02:00 -10°C° 0 mm 2 m/s 573 mmHg 82%
03:00 -12°C° 0 mm 2 m/s 573 mmHg 82%
04:00 -12°C° 0 mm 2 m/s 573 mmHg 82%
05:00 -12°C° 0 mm 2 m/s 573 mmHg 81%
06:00 -10°C° 0 mm 1 m/s 573 mmHg 81%
07:00 -9°C° 0 mm 1 m/s 573 mmHg 80%
08:00 -8°C° 0 mm 1 m/s 574 mmHg 79%
09:00 -7°C° 0 mm 1 m/s 575 mmHg 78%
10:00 -6°C° 0 mm 1 m/s 575 mmHg 80%
11:00 -4°C° 0 mm 1 m/s 575 mmHg 81%
12:00 -3°C° 0 mm 1 m/s 575 mmHg 83%
13:00 -4°C° 0 mm 1 m/s 575 mmHg 87%
14:00 -4°C° 0 mm 1 m/s 574 mmHg 90%
15:00 -5°C° 0 mm 0 m/s 574 mmHg 94%
16:00 -7°C° 0 mm 1 m/s 574 mmHg 93%
17:00 -8°C° 0 mm 1 m/s 573 mmHg 93%
18:00 -9°C° 0 mm 1 m/s 572 mmHg 92%
19:00 -10°C° 0 mm 1 m/s 572 mmHg 90%
20:00 -10°C° 0 mm 1 m/s 572 mmHg 88%
21:00 -11°C° 0 mm 1 m/s 572 mmHg 86%
22:00 -13°C° 0 mm 2 m/s 572 mmHg 86%
23:00 -13°C° 0 mm 2 m/s 572 mmHg 86%

6 Décembre, Dimanche

Heure Température Précipitation Vent Pression Humidité
00:00 -13°C° 0 mm 2 m/s 572 mmHg 87%
01:00 -13°C° 0 mm 2 m/s 572 mmHg 86%
02:00 -13°C° 0 mm 2 m/s 572 mmHg 86%
03:00 -11°C° 0 mm 1 m/s 572 mmHg 86%
04:00 -11°C° 0 mm 1 m/s 572 mmHg 86%
05:00 -12°C° 0 mm 1 m/s 571 mmHg 85%
06:00 -12°C° 0 mm 1 m/s 571 mmHg 85%
07:00 -11°C° 0 mm 1 m/s 572 mmHg 85%
08:00 -10°C° 0 mm 1 m/s 573 mmHg 85%
09:00 -9°C° 0 mm 1 m/s 573 mmHg 85%
10:00 -8°C° 0 mm 1 m/s 574 mmHg 86%
11:00 -7°C° 0 mm 1 m/s 574 mmHg 87%
12:00 -6°C° 0 mm 1 m/s 574 mmHg 89%
13:00 -6°C° 0.1 mm 1 m/s 574 mmHg 91%
14:00 -6°C° 0.1 mm 1 m/s 574 mmHg 93%
15:00 -7°C° 0.1 mm 1 m/s 574 mmHg 94%
16:00 -8°C° 0.1 mm 1 m/s 573 mmHg 95%
17:00 -9°C° 0.1 mm 1 m/s 572 mmHg 95%
18:00 -11°C° 0.1 mm 1 m/s 572 mmHg 95%
19:00 -11°C° 0.1 mm 1 m/s 572 mmHg 94%
20:00 -13°C° 0.1 mm 2 m/s 572 mmHg 93%
21:00 -14°C° 0.1 mm 2 m/s 572 mmHg 92%
22:00 -14°C° 0 mm 2 m/s 572 mmHg 91%
23:00 -14°C° 0 mm 2 m/s 572 mmHg 91%

7 Décembre, Lundi

Heure Température Précipitation Vent Pression Humidité
00:00 -14°C° 0 mm 2 m/s 572 mmHg 90%
01:00 -14°C° 0 mm 2 m/s 572 mmHg 90%
02:00 -14°C° 0 mm 2 m/s 572 mmHg 89%
03:00 -14°C° 0 mm 2 m/s 572 mmHg 88%
04:00 -14°C° 0 mm 2 m/s 572 mmHg 87%
05:00 -14°C° 0 mm 2 m/s 572 mmHg 86%
06:00 -15°C° 0 mm 2 m/s 572 mmHg 85%
07:00 -12°C° 0 mm 1 m/s 573 mmHg 84%
08:00 -10°C° 0 mm 1 m/s 574 mmHg 83%
09:00 -9°C° 0 mm 1 m/s 574 mmHg 82%
10:00 -9°C° 0 mm 1 m/s 575 mmHg 83%
11:00 -8°C° 0 mm 1 m/s 575 mmHg 84%
12:00 -7°C° 0 mm 1 m/s 576 mmHg 85%
13:00 -7°C° 0 mm 1 m/s 575 mmHg 88%
14:00 -7°C° 0 mm 0 m/s 575 mmHg 91%
15:00 -8°C° 0 mm 0 m/s 575 mmHg 94%
16:00 -9°C° 0 mm 1 m/s 574 mmHg 93%
17:00 -11°C° 0 mm 1 m/s 573 mmHg 92%
18:00 -12°C° 0 mm 1 m/s 572 mmHg 91%
19:00 -12°C° 0 mm 1 m/s 573 mmHg 89%
20:00 -14°C° 0 mm 2 m/s 573 mmHg 86%
21:00 -15°C° 0 mm 2 m/s 573 mmHg 84%
22:00 -15°C° 0 mm 2 m/s 573 mmHg 85%
23:00 -15°C° 0 mm 2 m/s 573 mmHg 85%

8 Décembre, Mardi

Heure Température Précipitation Vent Pression Humidité
00:00 -15°C° 0 mm 2 m/s 573 mmHg 86%
01:00 -15°C° 0 mm 2 m/s 573 mmHg 87%
02:00 -15°C° 0 mm 2 m/s 573 mmHg 87%
03:00 -16°C° 0 mm 3 m/s 573 mmHg 88%
04:00 -15°C° 0 mm 3 m/s 573 mmHg 87%
05:00 -14°C° 0 mm 2 m/s 573 mmHg 86%
06:00 -14°C° 0 mm 2 m/s 573 mmHg 85%
07:00 -13°C° 0 mm 2 m/s 574 mmHg 82%
08:00 -12°C° 0 mm 2 m/s 574 mmHg 79%
09:00 -10°C° 0 mm 2 m/s 575 mmHg 76%
10:00 -9°C° 0 mm 2 m/s 576 mmHg 76%
11:00 -8°C° 0 mm 2 m/s 576 mmHg 76%
12:00 -6°C° 0 mm 2 m/s 576 mmHg 76%
13:00 -7°C° 0 mm 2 m/s 576 mmHg 77%
14:00 -7°C° 0 mm 2 m/s 576 mmHg 78%
15:00 -8°C° 0 mm 2 m/s 575 mmHg 79%
16:00 -9°C° 0 mm 2 m/s 575 mmHg 69%
17:00 -10°C° 0 mm 2 m/s 575 mmHg 58%
18:00 -12°C° 0 mm 2 m/s 574 mmHg 48%
19:00 -12°C° 0 mm 2 m/s 574 mmHg 44%
20:00 -12°C° 0 mm 2 m/s 574 mmHg 40%
21:00 -12°C° 0 mm 2 m/s 574 mmHg 35%
22:00 -12°C° 0 mm 2 m/s 575 mmHg 35%
23:00 -10°C° 0 mm 2 m/s 575 mmHg 34%
Voir plus

Nous avons besoin de votre consentement

Meteoprog et ses fournisseurs de services peuvent stocker et accéder à des données personnelles telles que des cookies, des identifiants d'appareils ou d'autres technologies similaires sur votre appareil et traiter ces données pour personnaliser le contenu et les publicités, ainsi que pour fournir des fonctionnalités de médias sociaux et analyser le trafic.

  • Stocker et/ou accéder à des informations sur votre appareil

    Des cookies, des identifiants d'appareils ou d'autres informations peuvent être stockés ou accessibles sur votre appareil aux fins indiquées ci-dessus.

  • Annonces et contenus personnalisés, mesure des annonces et des contenus, connaissance de l'audience et développement de produits

    Les annonces et le contenu peuvent être personnalisés en fonction d'un profil. D'autres données peuvent être ajoutées pour mieux personnaliser les annonces et le contenu. Les performances des publicités et du contenu peuvent être mesurées. Il est possible d'obtenir des informations sur le public qui a vu les publicités et le contenu. Ces données peuvent être utilisées pour développer ou améliorer l'expérience de l'utilisateur, les systèmes et les logiciels.

En cliquant sur "J'accepte", vous autorisez l'utilisation de cookies, des identifiants d'appareils, des balises web ou d'autres technologies similaires. Vos paramètres peuvent être modifiés dans le navigateur de votre appareil.

Dans certains cas, des intérêts légitimes peuvent être invoqués plutôt qu'un consentement. Vous pouvez en savoir plus à ce sujet dans notre Politique de confidentialité et de cookies.